Find Starlink 31291

NORAD ID: 59096 Int'l Des: 2024-041 Owner: SPXS Country: US Constellation: starlink operational
LEOCIRCULAR

Live Position

Loading 3D Globe...

About Starlink 31291

Description loading...

Upcoming Passes

Passes for default location (London). Set your location on the main map for personalized predictions.

Altitude History

Loading altitude history...

Two-Line Element Set

1 59096U 24041Y 26121.07359513 .00000294 00000-0 20213-4 0 9992
2 59096 43.0039 14.8009 0000669 301.1045 58.9741 15.27581053122283
Epoch: May 1, 2026 • Age: 12 hours

Current Status

Altitude 482.4 km
Velocity 7.63 km/s
Sub-Earth Point 9.67°N, 119.99°E
Launch Date Feb 29, 2024
Age 2.1 years
Type internet

Technical Details

Classification Payload
Mass 730.00 kg
Dry Mass 700.00 kg
Total Mass 730.00 kg
Length 0.30 m
Diameter 4.10 m
Span 29.00 m
Shape Box + pan
Manufacturer SPXS
Bus Type Starlink V2M
Phase Status In Orbit
Owner/State SPXS/US

Most Searched